Regional Weather Roundup
Issued by NWS Green Bay, WI

Home | Current Version | Previous Version | Text Only | Print | Product List | Glossary On
Versions: 1 2 3 4 5 6 7 8 9 10 11 12 13 14 15 16 17 18 19 20 21 22 23 24 25 26 27 28 29 30 31 32 33 34 35 36 37 38 39 40 41 42 43 44 45 46 47 48 49 50
000
ASUS43 KGRB 231501
RWRGRB

NORTH-CENTRAL AND NORTHEAST WISCONSIN REGIONAL WEATHER ROUNDUP
NATIONAL WEATHER SERVICE GREEN BAY WI
1000 AM CDT MON OCT 23 2017

WIZ005-009-010>012-018-019-231600-
NORTH CENTRAL WISCONSIN

CITY           SKY/WX    TMP DP  RH WIND       PRES   REMARKS
IRONWOOD       CLOUDY    51  38  60 SW10      29.73S
MANITOWISH WTR NOT AVBL
ARBOR VITAE    NOT AVBL
EAGLE RIVER    NOT AVBL
LAND O LAKES   NOT AVBL
RHINELANDER    PTSUNNY   49  40  71 S8        29.81F
PHILLIPS       NOT AVBL
ANTIGO         NOT AVBL
TOMAHAWK       NOT AVBL
MERRILL        NOT AVBL
$$

WIZ013-073-231600-
NORTHEAST WISCONSIN

CITY           SKY/WX    TMP DP  RH WIND       PRES   REMARKS
IRON MOUNTAIN  CLOUDY    42  40  92 VRB3      29.82F
MARINETTE      FOG       45  45 100 CALM      29.86F VSB 1/4
$$

WIZ017-030-035>037-045-231600-
CENTRAL WISCONSIN

CITY           SKY/WX    TMP DP  RH WIND       PRES   REMARKS
MEDFORD        NOT AVBL
WAUSAU         MOSUNNY   46  42  86 VRB5      29.80F
MOSINEE        PTSUNNY   43  43 100 CALM      29.83F
MARSHFIELD     MOSUNNY   47  41  80 S7        29.80F
WISC RAPIDS    CLOUDY    46  42  86 S5        29.82F
STEVENS POINT  NOT AVBL
WAUPACA        NOT AVBL
SHAWANO        NOT AVBL
CLINTONVILLE   NOT AVBL
WAUTOMA        CLOUDY   N/A N/A N/A SE5       29.85F FOG
$$

WIZ038-039-048-051-231600-
FOX VALLEY

CITY           SKY/WX    TMP DP  RH WIND       PRES   REMARKS
NWS GREEN BAY  FOG       46  46 100 CALM      29.86F VSB 1/4
APPLETON       PTSUNNY   46  46 100 CALM      29.84F
OSHKOSH        CLOUDY    48  46  93 SE3       29.84F
FOND DU LAC    CLOUDY    48  45  89 CALM      29.84F
$$

WIZ022-050-052-231600-
EAST CENTRAL WISCONSIN

CITY           SKY/WX    TMP DP  RH WIND       PRES   REMARKS
EPHRAIM        NOT AVBL
WASHINGTON ISL NOT AVBL
STURGEON BAY   CLOUDY    47  47 100 CALM      29.86F
MANITOWOC      CLOUDY    48  47  96 N3        29.86F
SHEBOYGAN      CLOUDY    49  49 100 CALM      29.85F
$$

LMZ563-521-522-541>543-231600-
LAKESHORE

STATION/POSITION TIME  TEMP    WIND        PRES    VSBY  WAVE
                       AIR SEA DIR/SP/G                  HT/PER
                 (UTC) (F)     (DEG/KT/KT) (MB)    (MI)  (FT/S)
SHEBOYGAN LKSHOR 1400   48     340/  4/  5 1011.8F
KEWAUNEE LKSHORE 1430   45      CALM  /  1 1010.9F
NORTHPORT PIER   1440   49     160/  3/  4 1011.5F
N MID LAKE BUOY  1350   52 57  260/  4/  6 1012.9F         1
S GREEN BAY BUOY 1430   51 58  200/  2/  4 1011.2F
SISTER BAY LKSHO 1404   49        CALM       N/A
MENOMINEE LKSHOR 1424   45      CALM  /  1 1011.0
$$



USA.gov is the U.S. government's official web portal to all federal, state and local government web resources and services.